Location: Stull Observatory
(42.2506°N, 77.7903°W)
Time: 00:23:51
(UTC-04:00)

ISS - All Passes

Search period start: 06 May 2015 00:00
Search period end: 16 May 2015 00:00
Orbit: 394 x 401 km, 51.6° (Epoch: 05 May)

Date Brightness Start Highest point End Pass type
(mag) Time Alt. Az. Time Alt. Az. Time Alt. Az.
06 May - 08:17:22 10° SW 08:20:31 51° SE 08:23:40 10° ENE daylight
06 May - 09:54:09 10° W 09:56:59 27° NNW 09:59:51 10° NE daylight
06 May - 11:32:02 10° NW 11:34:07 16° N 11:36:12 10° NE daylight
06 May - 13:08:33 10° NW 13:11:17 24° NNE 13:14:01 10° ENE daylight
06 May - 14:44:38 10° WNW 14:47:53 68° SW 14:51:06 10° SE daylight
07 May - 07:23:34 10° SSW 07:26:16 25° SE 07:29:02 10° ENE daylight
07 May - 08:59:24 10° W 09:02:30 41° NNW 09:05:37 10° NE daylight
07 May - 10:37:16 10° NW 10:39:28 17° N 10:41:41 10° NE daylight
07 May - 12:14:17 10° NW 12:16:42 19° NNE 12:19:07 10° ENE daylight
07 May - 13:50:17 10° NW 13:53:31 63° NNE 13:56:45 10° ESE daylight
07 May - 15:27:28 10° W 15:29:34 16° SW 15:31:35 10° S daylight
08 May - 06:30:33 10° SSE 06:32:06 13° SE 06:33:45 10° E daylight
08 May - 08:04:50 10° WSW 08:08:04 74° NNW 08:11:20 10° NE daylight
08 May - 09:42:21 10° WNW 09:44:50 20° NNW 09:47:19 10° NE daylight
08 May - 11:19:54 10° NW 11:22:03 16° N 11:24:13 10° NE daylight
08 May - 12:56:01 10° NW 12:59:04 36° NNE 13:02:08 10° E daylight
08 May - 14:32:26 10° WNW 14:35:22 30° SW 14:38:15 10° SSE daylight
09 May - 07:10:33 10° SW 07:13:42 56° SE 07:16:54 10° ENE daylight
09 May - 08:47:25 10° W 08:50:14 26° NNW 08:53:02 10° NE daylight
09 May - 10:25:18 10° NW 10:27:21 16° N 10:29:25 10° NE daylight
09 May - 12:01:45 10° NW 12:04:30 25° NNE 12:07:17 10° ENE daylight
09 May - 13:37:51 10° WNW 13:41:04 62° SW 13:44:16 10° SE daylight
10 May - 06:16:37 10° SSW 06:19:24 27° SE 06:22:14 10° ENE daylight
10 May - 07:52:35 10° W 07:55:40 39° NNW 07:58:44 10° NE daylight
10 May - 09:30:28 10° NW 09:32:40 16° N 09:34:50 10° NE daylight
10 May - 11:07:26 10° NW 11:09:52 19° NNE 11:12:19 10° ENE daylight
10 May - 12:43:24 10° NW 12:46:40 68° NNE 12:49:54 10° ESE daylight
10 May - 14:20:45 10° W 14:22:41 15° SW 14:24:30 10° SSW daylight
11 May - 05:23:24 10° SSE 05:25:09 14° SE 05:27:01 10° E visible
11 May - 06:57:57 10° WSW 07:01:09 68° NNW 07:04:24 10° NE daylight
11 May - 08:35:30 10° WNW 08:37:57 19° NNW 08:40:23 10° NE daylight
11 May - 10:12:59 10° NW 10:15:09 16° N 10:17:20 10° NE daylight
11 May - 11:49:04 10° NW 11:52:09 38° NNE 11:55:13 10° E daylight
11 May - 13:25:33 10° WNW 13:28:24 28° SW 13:31:14 10° SSE daylight
12 May - 06:03:32 10° SW 06:06:43 61° SE 06:09:56 10° ENE daylight
12 May - 07:40:31 10° WNW 07:43:16 25° NNW 07:46:01 10° NE daylight
12 May - 09:18:21 10° NW 09:20:24 15° N 09:22:28 10° NE daylight
12 May - 10:54:44 10° NW 10:57:32 26° NNE 11:00:20 10° E daylight
12 May - 12:30:51 10° WNW 12:34:03 57° SW 12:37:14 10° SE daylight
13 May - 05:09:30 10° SSW 05:12:20 30° SE 05:15:14 10° ENE visible
13 May - 06:45:35 10° W 06:48:37 36° NNW 06:51:41 10° NE daylight
13 May - 08:23:29 10° NW 08:25:38 16° N 08:27:46 10° NE daylight
13 May - 10:00:22 10° NW 10:02:50 20° NNE 10:05:19 10° ENE daylight
13 May - 11:36:21 10° NW 11:39:35 73° NNE 11:42:50 10° ESE daylight
13 May - 13:13:52 10° W 13:15:35 13° SW 13:17:12 10° SSW daylight
14 May - 04:16:05 10° S 04:18:01 15° SE 04:20:02 10° E visible
14 May - 05:50:50 10° WSW 05:54:02 63° NNW 05:57:16 10° NE daylight
14 May - 07:28:27 10° WNW 07:30:51 19° NNW 07:33:15 10° NE daylight
14 May - 09:05:53 10° NW 09:08:04 17° N 09:10:16 10° NE daylight
14 May - 10:41:55 10° NW 10:45:02 41° NNE 10:48:07 10° E daylight
14 May - 12:18:28 10° WNW 12:21:15 26° SW 12:24:00 10° SSE daylight
15 May - 04:56:20 10° SW 04:59:31 66° SE 05:02:45 10° ENE visible
15 May - 06:33:23 10° WNW 06:36:06 24° NNW 06:38:49 10° NE daylight
15 May - 08:11:12 10° NW 08:13:15 15° N 08:15:18 10° NE daylight
15 May - 09:47:32 10° NW 09:50:21 27° NNE 09:53:12 10° E daylight
15 May - 11:23:40 10° WNW 11:26:51 52° SW 11:30:00 10° SE daylight
